sat.trackr.live / text

‹ back to catalog

GPS BIII-5 (PRN 11)

NORAD 48859 · 2021-054A

PAYLOAD ACTIVE UNKNOWN

§ Identity

Operator
Country
US
Launch date
2021-06-17
Launch site
AFETR
Launch vehicle
Mass (kg)
RCS (m²)

Purposes: nav

External: N2YO · Heavens-Above · Gunter

§ Orbital elements

Epoch: 2026-05-17T08:16:30.758016Z

Period
717.95 min
Inclination
55.1878°
Eccentricity
0.0024563
Mean motion
2.00570737 rev/d
Perigee alt
20,116.3 km
Apogee alt
20,246.8 km
Semi-major
26,559.7 km
B*
0.0000e+0
RAAN
333.6992°
Arg perigee
229.1356°
Mean anomaly
308.8651°
Rev number
3,613

§ Raw data

GPS BIII-5  (PRN 11)1 48859U 21054A   26137.34480044 -.00000068  00000+0  00000+0 0  99952 48859  55.1878 333.6992 0024563 229.1356 308.8651  2.00570737 36138

JSON: /api/v1/satellites/48859 · /tle

For live sub-satellite position, see the globe view (requires WebGL).

§ Visibility from observer

Set your observer location to see the next 7 days of passes ≥ 10°. The values pass through the URL so the page stays shareable.

No JS? Fill the form by hand. The geolocation button needs JavaScript.